RH
46 52 50 44 45 42 41 43 44 42 42 45 46 43 39 34 31 34 35 35 36 34 34 33 29 30 36 37 35 35 39 44 45 51 54 56 56 62 65 58 58 54 54 52
56 51 37 46 44 43 45 46 43 44 40 47 47 43 43 39 34 31 34 35 36 34 33 32 29 26 31 35 34 36 41 40 44 49 49 52 55 55 56 55 53 57 57 57
72 39 46 53 57 55 47 45 44 46 47 49 52 41 41 38 36 33 32 34 36 36 32 30 28 27 31 32 33 35 37 38 43 48 51 55 58 58 57 54 52 63 63 64
78 63 70 64 55 51 50 44 47 48 55 57 46 42 37 37 35 34 32 33 33 36 35 31 30 29 32 33 36 36 35 39 44 46 52 54 54 51 53 55 61 60 63 60
60 61 65 69 56 67 56 55 54 55 61 62 46 58 37 37 34 31 31 31 29 32 33 32 32 32 33 36 38 38 38 40 41 43 45 50 57 60 59 60 62 62 60 55
71 76 75 63 68 70 73 74 71 70 69 73 46 50 27 35 31 30 28 29 27 27 34 35 38 37 37 38 39 42 41 41 42 45 49 54 59 62 66 70 65 62 56 56
75 76 79 74 75 76 77 79 83 87 87 59 51 49 31 28 27 26 26 29 26 23 31 36 38 40 40 41 43 47 46 49 51 53 56 58 61 67 69 70 60 57 55 50
89 84 71 70 69 71 77 77 81 82 69 54 57 45 26 29 27 25 24 27 27 25 29 33 35 39 42 43 45 50 53 54 57 62 65 65 66 69 67 62 61 57 46 42
88 80 66 71 72 74 78 85 66 76 72 75 53 37 34 32 32 31 28 26 27 29 31 32 36 39 42 44 46 52 57 62 65 68 69 70 67 68 66 62 53 45 44 45
82 85 67 75 81 80 67 66 88 85 94 86 49 49 36 34 30 29 28 29 31 33 35 36 37 39 43 47 50 56 61 64 68 68 69 70 71 69 69 59 49 48 48 47
79 81 71 76 77 70 79 80 83 90 90 80 58 43 35 34 35 33 30 29 31 35 37 37 39 41 45 50 56 59 62 64 68 70 72 71 67 68 59 53 52 50 49 50
80 87 86 75 69 75 76 73 80 90 78 76 71 49 34 36 35 33 32 31 31 35 38 39 40 43 47 52 57 61 64 66 68 69 66 67 68 60 57 59 55 52 53 53
83 97 98 87 90 82 78 62 72 68 75 70 74 41 35 37 38 38 36 35 35 36 39 41 42 43 48 53 59 63 66 66 64 67 67 65 62 68 69 63 56 55 55 56
97 97 96 88 68 65 92 79 75 76 87 58 63 35 38 43 39 39 39 38 39 38 41 43 47 49 53 53 54 59 61 62 62 63 63 66 68 68 60 58 57 58 60 57
98 95 98 96 60 64 66 66 71 76 65 77 49 47 33 43 46 45 42 47 48 44 45 47 49 51 55 56 58 61 63 66 66 66 68 69 64 61 60 61 58 56 56 56
91 95 97 94 97 96 84 75 77 80 70 70 55 53 35 45 50 49 50 52 51 49 46 48 48 52 55 56 58 64 65 69 69 69 70 68 66 65 61 58 57 57 54 47
85 88 93 90 91 96 96 94 87 88 86 76 66 39 38 50 45 47 54 52 49 50 53 52 52 54 57 62 65 65 68 70 71 72 73 70 67 62 62 60 56 52 47 44
83 85 90 88 95 96 83 84 89 86 71 69 59 37 31 39 48 53 50 45 47 50 55 59 59 60 62 67 62 61 65 68 73 75 74 69 66 65 63 58 52 50 47 43
65 77 87 91 81 82 66 60 67 82 80 57 57 41 40 46 57 53 42 44 45 50 54 60 63 64 67 65 66 67 67 72 78 74 73 68 65 64 59 57 54 53 49 43
49 64 86 81 81 83 42 52 65 75 87 66 68 49 47 52 61 37 40 42 47 51 56 60 63 65 70 68 69 69 70 76 72 69 68 66 63 62 61 60 55 46 36 35
68 74 84 72 79 62 26 44 54 88 67 55 64 46 47 58 48 36 48 44 46 49 53 59 60 62 65 68 70 71 75 76 75 73 67 62 61 62 61 52 46 39 33 30
60 83 83 76 87 75 30 50 76 69 66 72 80 70 57 57 55 52 55 51 51 52 57 55 56 62 68 70 72 74 78 77 73 71 64 64 63 59 51 46 42 35 30 30
75 63 64 76 73 51 54 59 64 72 75 74 73 71 74 71 64 56 56 55 54 56 61 58 63 70 72 72 73 77 79 75 69 69 66 67 62 55 50 45 38 32 28 24
59 58 68 63 44 37 29 42 55 65 77 69 68 74 82 73 66 63 64 58 55 59 62 64 71 76 77 77 78 77 77 75 69 72 69 66 60 55 53 40 36 33 27 25
56 64 53 58 41 41 42 42 56 53 60 58 69 77 87 77 72 67 61 63 62 65 69 73 73 77 81 82 78 78 79 70 71 75 72 65 61 56 45 41 37 31 28 28
59 51 60 50 38 41 42 54 56 54 52 56 60 71 84 79 67 62 64 62 62 70 71 74 75 77 80 80 80 79 72 74 79 71 67 72 64 51 48 42 35 30 30 32